Cristian Gonzalez

Recruteur en chef - Rentistas
21 Nov 2027
Dimanche
Processus

Personnalité

Adaptabilité (2) Ambition (19) Controverse (12) Loyauté (16) Pression (4) Professionnalisme (3) Sportivité (14) Tempérament (3)

Profil

Style d'entraînement Démocratique
Diplôme Continental C
Détermination 4
Gestion des joueurs 9
Motivation 11
Discipline 4
Satisfaction professionnelle
100%
Fatigue
0%
Rôle Recruteur en chef
Salaire 62.1K p/s
Contrat 14.03.2028

Performance

Comportement Bon
Efficacité de l'entraînement
49%
Développement des joueurs
50%
Prévention des blessures
50%
Mise en place tactique
40%

Événements récents

A participé à une réunion de recrutement 7j
A participé à une réunion de recrutement 14j
A participé à une réunion de recrutement 21j
A participé à une réunion de recrutement 28j
A participé à une réunion de recrutement 35j
A participé à une réunion de recrutement 42j
A participé à une réunion de recrutement 49j
A participé à une réunion de recrutement 56j

Suivi en cours

167
Joueur Club Statut Capacité Confiance Observé Dernière observation Dernier vote
Matías Kouyoumdjian Cerrito Actif 100 / 85 41% 1 12.07.2027 -
Matías Silva La Luz Actif 95 / 100 41% 1 05.07.2027 -
Malik Mothersille Stockport County Actif 97 / 114 40% 2 08.03.2027 -
Alexandr Saplinov Volga Actif 108 / 103 40% 1 08.03.2027 -
Dale Taylor Blackpool Actif 119 / 99 40% 1 06.03.2027 -
Pedro Marques Apollon Actif 97 / 120 40% 1 06.03.2027 -
Federico Martínez MFK Ruzomberok Actif 119 / 125 40% 2 05.03.2027 -
Bohdan Boichuk Metalist Actif 120 / 109 40% 1 04.03.2027 -
Dmytro Shastal Livyi Bereh Actif 105 / 92 40% 1 04.03.2027 -
Mykola Haiduchyk Polissia Actif 104 / 102 40% 1 01.03.2027 -
Simone Mazzocchi Cosenza Actif 119 / 127 40% 1 01.03.2027 -
Danyil Alefirenko Chornomorets Actif 105 / 106 40% 1 28.02.2027 -
Aaron Collins Milton Keynes Dons Actif 116 / 121 40% 1 28.02.2027 -
Bernat Guiu Virtus Entella Actif 108 / 107 40% 1 27.02.2027 -
Stanislav Ivanov Arda Actif 140 / 104 40% 1 27.02.2027 -
John McAtee Leyton Orient Actif 90 / 104 40% 1 25.02.2027 -
Tommaso Biasci Avellino Actif 129 / 132 40% 1 25.02.2027 -
Hansel Zapata Arsenal Tula Actif 134 / 117 40% 2 24.02.2027 -
Jacopo Manconi Casertana Actif 129 / 125 40% 2 23.02.2027 -
Jonathan Dellarossa Lokomotiv Plovdiv Actif 115 / 114 40% 3 22.02.2027 -
Aaron Drinan Swindon Town Actif 95 / 96 40% 1 22.02.2027 -
Giacomo Zecca Torres Actif 119 / 92 40% 1 21.02.2027 -
David Karaev KAMAZ Actif 81 / 114 40% 1 21.02.2027 -
Vyacheslav Grulev Nizhniy Novgorod Actif 119 / 104 40% 2 16.02.2027 -
Samuel Kalu Botev Plovdiv Actif 115 / 113 40% 1 16.02.2027 -
Amur Kalmykov Spartak Kostroma Actif 98 / 94 40% 2 15.02.2027 -
Patrick Cutrone Monza Actif 146 / 123 40% 1 15.02.2027 -
Paul Glatzel Swindon Town Actif 111 / 102 40% 1 14.02.2027 -
Fábio Tavares Burton Albion Actif 76 / 100 40% 2 13.02.2027 -
Brayan Alcócer Oleksandriya Actif 124 / 97 40% 2 12.02.2027 -
Peter Itodo Metalist Actif 135 / 112 40% 1 08.02.2027 -
Juan Cejas Ethnikos Achnas Actif 128 / 109 40% 1 08.02.2027 -
Stephen Humphrys Bradford City Actif 127 / 113 40% 3 06.02.2027 -
Jake Beesley Burton Albion Actif 105 / 93 40% 1 06.02.2027 -
Mascote Botev Plovdiv Actif 85 / 94 40% 1 05.02.2027 -
Naledi Hlongwane Wa All Stars Actif 101 / 111 40% 1 03.02.2027 -
Vladislav Sarveli Nizhniy Novgorod Actif 97 / 105 40% 1 02.02.2027 -
Berna CSKA 1948 Actif 107 / 129 40% 1 01.02.2027 -
Luis Caicedo Spartak 1918 Actif 81 / 92 40% 1 31.01.2027 -
Joel Fameyeh Puskas Akademia Actif 90 / 107 40% 1 27.01.2027 -
Ifeagwu Ojukwu Asante Kotoko Actif 90 / 109 40% 1 26.01.2027 -
Martin Sekulić Ural Actif 131 / 103 40% 1 26.01.2027 -
Samuel Tetteh Liberty Professionals Actif 83 / 90 40% 1 25.01.2027 -
Federico Di Francesco Catanzaro Actif 136 / 102 40% 1 25.01.2027 -
Matty Stevens AFC Wimbledon Actif 81 / 118 40% 1 17.01.2027 -
Edoardo Soleri Bari Actif 137 / 118 40% 1 16.01.2027 -
Kamran Aliev SKA Khabarovsk Actif 82 / 113 40% 1 15.01.2027 -
Mikhail Ignatov Sochi Actif 109 / 126 40% 1 15.01.2027 -
Sam Nombe Milton Keynes Dons Actif 104 / 121 40% 1 13.01.2027 -
Chinonso Offor Baltika Actif 93 / 110 40% 1 13.01.2027 -
Matej Trusa DAC Dunajska Streda Actif 115 / 119 40% 1 12.01.2027 -
Yurii Klymchuk Kolos Actif 110 / 110 40% 1 12.01.2027 -
Job Ochieng Real Sociedad Actif 103 / 117 40% 1 10.01.2027 -
Paolo Yrizar Chernomorets Actif 95 / 105 40% 1 09.01.2027 -
Augustus Kargbo Blackburn Rovers Actif 126 / 117 40% 1 09.01.2027 -
Pepijn Doesburg AS Trencin Actif 122 / 107 40% 1 08.01.2027 -
Vladimir Khubulov Dinamo Makhachkala Actif 97 / 94 40% 1 08.01.2027 -
Tenton Yenne Baltika Actif 95 / 96 40% 1 05.01.2027 -
Georgy Melkadze Akhmat Grozny Actif 112 / 115 40% 1 04.01.2027 -
Manuel Pagano Imotski Actif 75 / 95 40% 1 04.01.2027 -
Killian Cahill Leyton Orient Actif 125 / 95 40% 2 29.11.2026 -
Nikita Yanovich Tyumen Actif 71 / 103 40% 2 29.11.2026 -
Mads Hedenstad AGF Actif 141 / 123 40% 3 27.11.2026 -
Andrei Vlad Petrolul Actif 131 / 106 40% 2 27.11.2026 -
George Wickens Lincoln City Actif 138 / 123 40% 1 26.11.2026 -
Samuel Brolin Kalmar FF Actif 91 / 122 40% 1 26.11.2026 -
Jordan Amissah Burton Albion Actif 110 / 101 40% 1 25.11.2026 -
Patrik Demjén MTK Budapest Actif 133 / 101 40% 1 25.11.2026 Plus d'infos
Sławomir Abramowicz Jagiellonia Actif 136 / 118 40% 1 24.11.2026 -
Fran Vieites Walsall Actif 104 / 128 40% 1 21.11.2026 -
Luke Southwood Bristol Rovers Actif 106 / 90 40% 1 19.11.2026 -
Cristopher Varela Deportivo La Guaira Actif 117 / 111 40% 1 18.11.2026 Plus d'infos
Angel Zamudio Sport Huancayo Actif 105 / 108 40% 1 18.11.2026 -
Robby McCrorie NK Varazdin Actif 105 / 105 40% 1 16.11.2026 -
Will Mannion Charlton Athletic Actif 126 / 122 40% 1 16.11.2026 Plus d'infos
Josh Keeley Luton Town Actif 103 / 136 40% 1 15.11.2026 -
Fernando Hernández Bekescsaba Actif 103 / 104 40% 1 14.11.2026 -
Moisés Gallo Aragua Actif 99 / 90 40% 4 13.11.2026 -
Luis Corredor Zulia Actif 106 / 87 40% 1 13.11.2026 -
Martin Trnovský Podbrezova Actif 125 / 105 40% 1 11.11.2026 -
Edmund Afful Hasaacas Actif 106 / 105 40% 1 11.11.2026 -
Will Dennis Milton Keynes Dons Actif 114 / 117 40% 1 10.11.2026 -
Gino Santilli Kalmar FF Actif 132 / 117 40% 2 08.11.2026 -
Gonzalo Falcón Cienciano Actif 98 / 119 40% 1 08.11.2026 -
Isaac Boehmer Vancouver Whitecaps Actif 88 / 107 40% 2 07.11.2026 -
Oliver Petersen Odd Actif 127 / 118 40% 1 07.11.2026 -
Lucas Lund Viborg Actif 115 / 112 40% 1 06.11.2026 -
Drake Callender Minnesota United FC Actif 102 / 127 40% 2 05.11.2026 -
Myles Roberts Cambridge United Actif 108 / 89 40% 1 04.11.2026 -
Nathan Bishop AFC Wimbledon Actif 117 / 111 40% 1 04.11.2026 Plus d'infos
Darío Orebro Actif 86 / 106 40% 1 03.11.2026 -
Diego Enríquez Sporting Cristal Actif 139 / 123 40% 1 31.10.2026 -
Santiago Gutiérrez Puskas Akademia Actif 80 / 88 40% 1 30.10.2026 -
Murphy Cooper Plymouth Argyle Actif 99 / 100 40% 1 29.10.2026 -
Omar Carabalí O'Higgins Actif 103 / 101 40% 3 27.10.2026 -
Diego Romero Universitario Actif 109 / 128 40% 2 27.10.2026 -
Martin Jedlička Banik Ostrava Actif 134 / 112 40% 2 23.10.2026 -
Oscar Hedvall Valerenga Actif 126 / 109 40% 1 20.10.2026 -
Santiago Garro Almirante Brown Actif 74 / 89 40% 1 18.10.2026 -
José Miers 12 de Octubre Actif 92 / 96 40% 1 18.10.2026 -
Fabián Palomino Ayacucho Actif 87 / 81 40% 1 17.10.2026 -
Tomás Ahumada Audax Italiano Actif 104 / 108 40% 2 15.10.2026 -
Anton Andersson Falkenberg Actif 111 / 108 40% 1 14.10.2026 -
Bogdan Ovsyannikov Orenburg Actif 116 / 99 40% 1 13.10.2026 -
Agustín Quiroz Viking Actif 108 / 90 40% 1 13.10.2026 -
Zacarías López Iquique Actif 94 / 89 40% 1 09.10.2026 -
Matouš Trmal Teplice Actif 137 / 113 40% 1 06.10.2026 -
Ayoub Jabbari FC Cincinnati Actif 119 / 113 40% 1 27.09.2026 -
José Rivas Gamboa Trujillanos Actif 98 / 97 40% 1 24.09.2026 -
Luis Iberico Sporting Cristal Actif 108 / 116 40% 1 24.09.2026 -
Xavier Biscayzacú Defensor Sporting Actif 135 / 122 40% 1 23.09.2026 -
Sebastián Parada San Luis Actif 81 / 99 40% 1 23.09.2026 -
Elías Villar Nacional Actif 75 / 84 40% 1 22.09.2026 -
Laurenţiu Popescu Astra Actif 95 / 120 40% 1 22.09.2026 -
Diego Rossi Monterrey Actif 150 / 131 40% 1 21.09.2026 -
Juan Manuel Toloza Keflavik Actif 98 / 91 40% 1 21.09.2026 -
Matías Contrera Hrvatski Dragovoljac Actif 88 / 101 40% 1 20.09.2026 -
Brian Montenegro Defensor Sporting Actif 109 / 108 40% 1 20.09.2026 -
Niklas Steffen Thun Actif 131 / 109 40% 1 13.09.2026 -
Justo Giani Umraniyespor Actif 106 / 134 40% 1 12.09.2026 -
Gonzalo Tapia Palestino Actif 96 / 102 40% 1 12.09.2026 -
Brent Gabriel Zulte Waregem Actif 102 / 124 40% 1 12.09.2026 -
Ezequiel Navarro Montoya Atlanta United FC Actif 94 / 81 40% 1 11.09.2026 -
Hernán Domínguez Nacional Actif 66 / 75 40% 1 11.09.2026 -
Héctor Holguín Morelia Actif 98 / 97 40% 1 09.09.2026 -
Gustavo Dionisi Guarani Actif 75 / 92 40% 1 08.09.2026 -
Juan Ignacio Berasi Colón Actif 91 / 101 40% 1 08.09.2026 -
Joe Abrigo Palestino Actif 117 / 112 40% 1 06.09.2026 -
Fabián Ahumada Samtredia Actif 83 / 95 40% 1 06.09.2026 -
Michael Hoyos Sporting Cristal Actif 118 / 125 40% 1 05.09.2026 -
Gustavo Aguilar Libertad Actif 111 / 108 40% 1 05.09.2026 -
Fernando Fernández Guarani Actif 108 / 110 40% 2 02.09.2026 -
Julian Herrera Cortulua Actif 118 / 121 40% 1 02.09.2026 -
Maximiliano Rodríguez Huachipato Actif 115 / 108 40% 1 01.09.2026 -
Dániel Gazdag New England Revolution Actif 141 / 135 40% 1 01.09.2026 -
Heung-Min Son Los Angeles Football Club Actif 157 / 149 40% 1 28.08.2026 -
Adalberto Peñaranda Deportivo Tachira Actif 110 / 118 40% 1 27.08.2026 -
Alberto Benítez Villalba Torpedo Kutaisi Actif 112 / 88 40% 1 27.08.2026 -
Franco Pulicastro Fortaleza CEIF Actif 102 / 98 40% 1 26.08.2026 -
Andrés Rentería Jaguares Actif 121 / 112 40% 1 26.08.2026 -
Tadeo Allende Inter Miami CF Actif 136 / 131 40% 1 23.08.2026 -
José Rivera Universitario Actif 100 / 114 40% 1 23.08.2026 -
Matías Campos López Union La Calera Actif 101 / 105 40% 1 22.08.2026 -
Brayan Fernández Patriotas Actif 102 / 101 40% 1 22.08.2026 -
Federico Santander Universidad Catolica Actif 106 / 114 40% 1 21.08.2026 -
Eryc Castillo Alianza Lima Actif 126 / 117 40% 1 19.08.2026 -
Alejandro Hohberg Cienciano Actif 117 / 106 40% 1 18.08.2026 -
Ronal Huaccha Sport Huancayo Actif 106 / 103 40% 1 15.08.2026 -
Rubén Del Campo Morelia Actif 90 / 88 40% 1 13.08.2026 -
Luis Ureta Alanyaspor Actif 97 / 82 40% 1 12.08.2026 -
Wilfrido De La Rosa Jaguares Actif 117 / 116 40% 1 10.08.2026 -
Alex Valera Universitario Actif 135 / 121 40% 1 10.08.2026 -
Adrián Parra Deportes Tolima Actif 111 / 118 40% 1 08.08.2026 -
Thiago Perugini San Lorenzo Actif 98 / 97 40% 1 07.08.2026 -
Adolfo Muñoz UTC Actif 128 / 110 40% 1 05.08.2026 -
Alejandro Ramos Melgar Actif 131 / 122 40% 1 05.08.2026 -
Aldair Quintana Atletico Bucaramanga Actif 111 / 125 40% 1 05.08.2026 -
Walter Tandazo Melgar Actif 104 / 113 40% 1 04.08.2026 -
Luis Jiménez Jaguares Actif 114 / 113 40% 1 04.08.2026 -
Lucas Quintana Cerro Porteno Actif 97 / 122 40% 1 03.08.2026 -
Geovan Montes Llaneros Actif 97 / 103 40% 1 03.08.2026 -
Italo Regalado Cesar Vallejo Actif 117 / 104 40% 1 03.08.2026 -
Santiago Giordana Millonarios Actif 106 / 108 40% 1 03.08.2026 -
Ian Glavinovich Newell's Old Boys Actif 106 / 114 40% 1 02.08.2026 -
Manuel García Sarmiento Actif 104 / 123 40% 1 02.08.2026 -
Andrey Estupiñán Millonarios Actif 122 / 121 40% 1 02.08.2026 -
Jhoao Rodríguez Deportes Quindio Actif 126 / 103 40% 1 02.08.2026 -